JOTAC Weather Reports


time (UTC)temp
C
wind
direction
speed
KPH
gust
KPH
rain 1hr
cm
rain 24hr
cm
rain mn
cm
humidity
%
barometer
mb
20260508070032 8 82 9.7 16.1 0.00 0.18 0.00 83 1009.9
20260508064545 8 69 9.7 19.3 0.00 0.18 0.00 84 1010.0
20260508063033 7 84 8.0 12.9 0.00 0.18 0.00 85 1009.9
20260508061532 7 78 6.4 14.5 0.00 0.18 0.00 85 1009.6
20260508060031 7 98 8.0 12.9 0.00 0.18 0.00 85 1009.7
20260508054529 7 90 4.8 12.9 0.00 0.20 0.00 86 1009.8
20260508053028 7 94 6.4 14.5 0.00 0.20 0.00 86 1009.6
20260508051530 7 84 8.0 12.9 0.00 0.20 0.00 86 1009.4
20260508050030 7 104 6.4 11.3 0.00 0.20 0.00 86 1009.4
20260508044530 7 105 4.8 11.3 0.00 0.20 0.00 85 1009.8
20260508043033 7 119 6.4 12.9 0.00 0.20 0.00 85 1009.6
20260508041529 7 81 4.8 11.3 0.00 0.20 0.00 85 1009.5
20260508040031 7 87 6.4 14.5 0.00 0.20 0.00 85 1009.5
20260508034530 7 108 9.7 14.5 0.00 0.20 0.00 85 1009.4
20260508033030 7 92 6.4 11.3 0.00 0.20 0.00 85 1009.6
20260508031530 7 68 4.8 11.3 0.00 0.20 0.00 85 1009.8
20260508030029 7 91 6.4 9.7 0.00 0.20 0.00 85 1010.1
20260508024531 7 90 4.8 11.3 0.00 0.20 0.00 84 1010.0
20260508023035 8 98 4.8 9.7 0.00 0.20 0.00 85 1010.2
20260508021531 8 96 6.4 11.3 0.00 0.20 0.00 85 1010.2
20260508020031 8 79 6.4 11.3 0.00 0.20 0.00 85 1010.3
20260508014534 8 94 4.8 11.3 0.00 0.20 0.00 84 1010.6
20260508013030 8 84 4.8 9.7 0.00 0.20 0.00 84 1010.7
20260508011538 8 92 3.2 9.7 0.00 0.20 0.00 84 1011.1
20260508010034 8 84 4.8 9.7 0.00 0.20 0.00 84 1011.2
20260508004545 8 103 3.2 6.4 0.00 0.20 0.00 84 1011.6
20260508003036 8 92 0.0 8.0 0.00 0.20 0.00 83 1011.6
20260508001533 8 78 1.6 4.8 0.00 0.20 0.00 83 1011.6
20260508000031 8 82 3.2 6.4 0.00 0.20 0.00 83 1011.6
20260507234532 8 84 4.8 9.7 0.00 0.20 0.00 83 1011.4
20260507233032 8 101 6.4 11.3 0.00 0.20 0.00 83 1011.3
20260507231530 8 74 4.8 9.7 0.00 0.20 0.00 82 1011.4
20260507230031 8 107 4.8 11.3 0.00 0.20 0.00 82 1011.6
20260507224530 8 95 4.8 6.4 0.00 0.20 0.00 82 1011.6
20260507223030 8 92 3.2 6.4 0.00 0.20 0.00 81 1011.7
20260507221534 8 90 3.2 6.4 0.00 0.20 0.00 81 1011.8
20260507220032 8 86 4.8 9.7 0.00 0.20 0.00 80 1011.6
20260507214530 9 86 4.8 11.3 0.00 0.20 0.20 79 1011.6
20260507213033 9 65 6.4 12.9 0.00 0.20 0.20 77 1011.5
20260507211528 9 88 8.0 14.5 0.00 0.20 0.20 77 1011.5
20260507210032 9 82 4.8 16.1 0.00 0.20 0.20 78 1011.2
20260507204530 9 80 8.0 14.5 0.00 0.20 0.20 77 1011.1
20260507203030 9 109 8.0 12.9 0.00 0.20 0.20 77 1010.9
20260507201529 9 81 6.4 11.3 0.00 0.20 0.20 77 1010.8
20260507200036 10 84 8.0 12.9 0.00 0.20 0.20 76 1010.6
20260507194532 10 101 6.4 12.9 0.00 0.20 0.20 76 1010.4
20260507193032 10 94 6.4 14.5 0.00 0.20 0.20 75 1010.3
20260507191532 11 113 9.7 17.7 0.00 0.20 0.20 74 1010.2
20260507190037 11 98 9.7 17.7 0.00 0.20 0.20 74 1010.3
20260507184537 11 108 12.9 17.7 0.00 0.20 0.20 73 1010.0
20260507183037 12 107 9.7 17.7 0.05 0.20 0.20 71 1009.7
20260507181532 12 0 0.0 6.4 0.08 0.20 0.20 71 1009.4
20260507180032 12 348 4.8 9.7 0.13 0.20 0.20 72 1009.3
20260507174536 10 276 4.8 17.7 0.13 0.18 0.18 82 1009.5
20260507173033 10 24 6.4 12.9 0.10 0.15 0.15 81 1009.7
20260507171534 10 329 3.2 16.1 0.08 0.10 0.10 77 1009.9
20260507170035 11 0 1.6 24.1 0.03 0.08 0.08 68 1010.1
20260507164530 11 257 4.8 17.7 0.00 0.05 0.05 71 1009.8
20260507163033 13 254 11.3 22.5 0.00 0.03 0.03 61 1009.6
20260507161531 14 261 11.3 20.9 0.00 0.03 0.03 51 1009.3
20260507160034 15 298 6.4 22.5 0.00 0.03 0.03 51 1009.1
20260507154533 16 205 4.8 12.9 0.00 0.03 0.03 42 1009.1
20260507153030 17 214 4.8 14.5 0.00 0.03 0.03 38 1009.0
20260507151530 18 184 4.8 19.3 0.00 0.03 0.03 40 1009.1
20260507150032 17 246 6.4 16.1 0.00 0.03 0.03 41 1009.1
20260507144529 18 165 6.4 17.7 0.00 0.03 0.03 42 1009.2
20260507143031 17 202 6.4 17.7 0.00 0.03 0.03 44 1009.3
20260507141530 17 148 3.2 16.1 0.00 0.03 0.03 45 1009.4
20260507140028 17 256 4.8 17.7 0.00 0.03 0.03 43 1009.5
20260507134530 16 201 3.2 12.9 0.00 0.03 0.03 49 1009.6
20260507133030 16 179 3.2 12.9 0.00 0.03 0.03 46 1009.9
20260507131535 16 182 1.6 12.9 0.00 0.03 0.03 50 1010.0
20260507130030 17 196 3.2 11.3 0.00 0.03 0.03 50 1010.2
20260507124536 16 163 1.6 12.9 0.00 0.03 0.03 50 1010.3
20260507123033 16 196 3.2 11.3 0.00 0.03 0.03 51 1010.6
20260507121540 16 175 4.8 19.3 0.00 0.03 0.03 48 1010.6
20260507120030 16 254 6.4 20.9 0.00 0.03 0.03 52 1010.8
20260507114530 16 134 6.4 19.3 0.00 0.03 0.03 52 1011.0
20260507113035 16 154 6.4 17.7 0.00 0.03 0.03 51 1011.2
20260507111529 16 123 3.2 16.1 0.00 0.03 0.03 54 1011.1
20260507110031 15 78 6.4 14.5 0.00 0.03 0.03 56 1011.1
20260507104531 15 140 6.4 14.5 0.00 0.03 0.03 57 1011.2
20260507103032 15 125 4.8 12.9 0.00 0.03 0.03 60 1011.4
20260507101537 15 126 8.0 17.7 0.00 0.03 0.03 59 1011.4
20260507100034 14 105 6.4 12.9 0.00 0.03 0.03 60 1011.4
20260507094530 14 138 6.4 14.5 0.00 0.03 0.03 59 1011.5
20260507093037 13 121 6.4 12.9 0.00 0.03 0.03 63 1011.6
20260507091532 13 152 4.8 16.1 0.00 0.03 0.03 64 1011.6
20260507090032 13 104 4.8 16.1 0.00 0.03 0.03 66 1011.5
20260507084532 12 111 11.3 17.7 0.00 0.03 0.03 68 1011.5
20260507083038 12 114 9.7 17.7 0.00 0.03 0.03 69 1011.5
20260507081531 11 100 8.0 14.5 0.00 0.03 0.03 70 1011.5
20260507080030 11 58 9.7 16.1 0.00 0.03 0.03 71 1011.5
20260507074532 11 80 8.0 14.5 0.00 0.03 0.03 71 1011.4
20260507073030 10 108 6.4 14.5 0.00 0.03 0.03 73 1011.4
20260507071551 9 107 6.4 14.5 0.00 0.03 0.03 73 1011.5